Regional Weather Roundup
Issued by NWS

Home | Current Version | Previous Version | Graphics & Text | Print | Product List | Glossary On
Versions: 1 2 3 4 5 6 7 8 9 10 11 12 13 14 15 16 17 18 19 20 21 22 23 24 25 26 27 28 29 30 31 32 33 34 35 36 37 38 39 40 41 42 43 44 45 46 47 48 49 50
000
ASUS44 KMEG 310400
RWRTN
TENNESSEE HOURLY STATE WEATHER ROUNDUP
NATIONAL WEATHER SERVICE MEMPHIS TN
1000 PM CST FRI JAN 30 2015

TNZ002-004-019-021-049-052-054-088>092-310500-
WEST TENNESSEE

CITY           SKY/WX    TMP DP  RH WIND       PRES   REMARKS
MEMPHIS INTL   PTCLDY    39  24  55 NE6       30.42F WCI  35
NWS MEMPHIS      N/A     32 N/A N/A MISG        N/A
JACKSON        CLEAR     26  20  77 CALM      30.43F
DYERSBURG      PTCLDY    34  14  44 NE5       30.46S WCI  30
UNION CITY     CLEAR     27  21  80 CALM      30.43S
PARIS          CLEAR     27  18  69 NE5       30.43F WCI  21
LEXINGTON      CLEAR     30  18  59 CALM      30.42S
SAVANNAH       CLEAR     27  19  74 CALM      30.43S
$$

TNZ008-025-027-028-033-062-065-066-310500-
NORTH MIDDLE TENNESSEE

CITY           SKY/WX    TMP DP  RH WIND       PRES   REMARKS
NASHVILLE      CLEAR     33  20  58 N7        30.45R WCI  27
CLARKSVILLE    CLEAR     31  21  66 N3        30.45F
COOKEVILLE     CLEAR     21  18  86 CALM      30.41S
CROSSVILLE     CLEAR     28  18  66 CALM      30.38R
$$

TNZ061-075-076-078-094-096-097-310500-
SOUTH MIDDLE TENNESSEE

CITY           SKY/WX    TMP DP  RH WIND       PRES   REMARKS
FAYETTEVILLE   CLEAR     30  18  59 MISG      30.40S
TULLAHOMA      CLEAR     25  19  80 CALM      30.40F
WINCHESTER     CLEAR     23  19  86 CALM      30.41S
COLUMBIA       CLEAR     27  27 100 CALM      30.41S
SHELBYVILLE    CLEAR     25  21  86 N5        30.42F WCI  19
$$

TNZ017-018-042-046-047-310500-
NORTHEAST TENNESSEE

CITY           SKY/WX    TMP DP  RH WIND       PRES   REMARKS
TRI CITIES     CLEAR     26  15  63 CALM      30.38S
ELIZABETHTON   CLEAR     23  12  63 CALM      30.36S
$$

TNZ012-013-036-069-073-074-310500-
CENTRAL EAST TENNESSEE

CITY           SKY/WX    TMP DP  RH WIND       PRES   REMARKS
KNOXVILLE      CLEAR     31  18  58 CALM      30.40S
OAK RIDGE      CLEAR     31  20  63 CALM      30.42S
GATLINBURG     CLEAR     25  18  74 CALM      30.40S
$$

TNZ083-085-099-310500-
SOUTHEAST TENNESSEE

CITY           SKY/WX    TMP DP  RH WIND       PRES   REMARKS
CHATTANOOGA    PTCLDY    33  21  61 NW6       30.41S WCI  28
$$

SKY/WX REPORTED AS FAIR MEANS FEW OR NO CLOUDS BELOW
12 THOUSAND FEET.



USA.gov is the U.S. government's official web portal to all federal, state and local government web resources and services.